Leadville, CO

2:11 AM MDT on May 23, 2017 (GMT -0600)
Lake County

Weather History for KLXV - August, 2012

Change the Weather History Date:

Monday, August 13, 2012

  Actual Average Record
Temperature  
Mean Temperature 47 °F -  
Max Temperature 53 °F 68 °F 84 °F (1996)
Min Temperature 41 °F 38 °F 27 °F (1985)
Degree Days  
Heating Degree Days 18 12  
Month to date heating degree days 126 146  
Since 1 June heating degree days 697 962  
Since 1 July heating degree days 367 482  
Cooling Degree Days 0 0  
Month to date cooling degree days 0 0  
Year to date cooling degree days 0 0  
Since 1 June cooling degree days 0 0  
Moisture  
Dew Point 42 °F    
Average Humidity 82    
Maximum Humidity 100    
Minimum Humidity 64    
Precipitation  
Precipitation 0.20 in 0.06 in 0.36 in (2001)
Month to date precipitation 1.38 0.89  
Year to date precipitation 7.70 7.81  
Snow  
Snow 0.00 in - - ()
Month to date snowfall 0.0  
Since 1 June snowfall 0.0  
Snow Depth 0.00 in    
Sea Level Pressure  
Sea Level Pressure 30.09 in    
Wind  
Wind Speed 7 mph (NNE)    
Max Wind Speed 20 mph    
Max Gust Speed 25 mph    
Visibility 9 miles    
Events Rain    
T = Trace of Precipitation, MM = Missing Value Source: NWS Daily Summary

Daily Weather History Graph

Daily Weather History Graph

Search for Another Location

Airport or City:

Trip Planner

Search our weather history database for the weather conditions in past years. The results will help you decide how hot, cold, wet, or windy it might be!

Date:

Astronomy

Aug. 13, 2012 Rise Set
Actual Time 6:16 AM MDT 8:02 PM MDT
Civil Twilight 5:48 AM MDT 8:31 PM MDT
Nautical Twilight 5:13 AM MDT 9:05 PM MDT
Astronomical Twilight 4:36 AM MDT 9:42 PM MDT
Moon 2:23 AM MDT (8/13) 5:15 PM MDT (8/13)
Length of Visible Light 14h 42m
Length of Day
13h 45m
Waning Crescent, 16% of the Moon is Illuminated
Aug 13
Waning Crescent
Aug 17
New
Aug 24
First Quarter
Aug 31
Full
Sep 8
Last Quarter

Hourly Weather History & Observations

Time (MDT) Temp. Windchill Dew Point Humidity Pressure Visibility Wind Dir Wind Speed Gust Speed Precip Events Conditions
12:53 AM 46.0 °F 43.9 °F 39.0 °F 76% 30.06 in 10.0 mi ENE 4.6 mph - N/A   Clear
1:53 AM 45.0 °F 41.8 °F 37.9 °F 76% 30.04 in 10.0 mi NE 5.8 mph - N/A   Clear
2:53 AM 44.1 °F 41.5 °F 37.9 °F 79% 30.04 in 10.0 mi NE 4.6 mph - N/A   Clear
3:53 AM 43.0 °F - 39.0 °F 86% 30.03 in 10.0 mi Calm Calm - N/A   Clear
4:53 AM 42.1 °F 40.2 °F 37.9 °F 85% 30.04 in 10.0 mi ENE 3.5 mph - N/A   Scattered Clouds
5:53 AM 44.1 °F 40.8 °F 39.0 °F 82% 30.01 in 10.0 mi NE 5.8 mph - N/A   Mostly Cloudy
6:53 AM 44.1 °F - 39.0 °F 82% 30.02 in 10.0 mi Calm Calm - N/A   Overcast
7:53 AM 48.9 °F - 41.0 °F 74% 30.05 in 10.0 mi Calm Calm - N/A   Mostly Cloudy
8:53 AM 53.1 °F - 41.0 °F 64% 30.06 in 10.0 mi NNE 6.9 mph - N/A   Overcast
9:53 AM 52.0 °F - 43.0 °F 71% 30.10 in 10.0 mi North 6.9 mph - N/A   Overcast
10:53 AM 48.9 °F - 45.0 °F 86% 30.13 in 7.0 mi North 8.1 mph - 0.01 in Rain Light Rain
11:53 AM 46.9 °F - 45.0 °F 93% 30.19 in 4.0 mi North 10.4 mph - 0.08 in Rain Light Rain
12:53 PM 46.9 °F - 44.1 °F 90% 30.18 in 7.0 mi North 11.5 mph - 0.02 in Rain Light Rain
1:53 PM 46.9 °F - 43.0 °F 86% 30.18 in 10.0 mi North 5.8 mph - 0.02 in Rain Light Rain
2:53 PM 46.9 °F - 44.1 °F 90% 30.16 in 9.0 mi North 10.4 mph - 0.05 in Rain Light Rain
3:53 PM 46.9 °F - 45.0 °F 93% 30.15 in 5.0 mi North 10.4 mph - 0.01 in Rain Rain
4:53 PM 48.9 °F - 43.0 °F 80% 30.13 in 10.0 mi North 16.1 mph 21.9 mph 0.01 in   Mostly Cloudy
5:53 PM 46.9 °F - 43.0 °F 86% 30.13 in 10.0 mi North 11.5 mph - 0.00 in Rain Light Rain
6:53 PM 46.0 °F 40.2 °F 41.0 °F 83% 30.14 in 10.0 mi North 12.7 mph - 0.00 in   Overcast
7:53 PM 45.0 °F 41.8 °F 42.1 °F 90% 30.09 in 10.0 mi North 5.8 mph - 0.00 in Rain Light Rain
8:53 PM 45.0 °F 41.8 °F 42.1 °F 90% 30.06 in 10.0 mi NNE 5.8 mph - 0.00 in   Partly Cloudy
9:53 PM 43.0 °F 41.3 °F 42.1 °F 97% 30.09 in 10.0 mi North 3.5 mph - N/A   Clear
10:53 PM 44.1 °F 39.5 °F 41.0 °F 89% 30.08 in 10.0 mi NNE 8.1 mph - N/A   Clear
11:53 PM 43.0 °F 40.3 °F 41.0 °F 93% 30.09 in 10.0 mi North 4.6 mph - N/A   Clear